Location: Stara Lesna
(49.1528°N, 20.2911°E)
Time: 19:05:26
(UTC+02:00)

Meteor 1-19 Rocket - Pass Details

Date: 13 July 2020
Orbit: 811 x 924 km, 81.2° (Epoch: 10 August)

Event Time Altitude Azimuth Distance (km) Brightness Sun altitude
Rises 01:40:03 0° 349° (N) 3,466 8.6 -18.0°
Reaches altitude 10° 01:42:34 10° 352° (N) 2,507 7.7 -17.9°
Maximum altitude 01:48:13 67° 75° (ENE) 912 4.4 -17.7°
Enters shadow 01:52:05 20° 155° (SSE) 1,836 5.5 -17.5°
